KAITUO 1B
1 40912U 15049P   19322.53238204  .00001167  00000-0  57475-4 0  9996
2 40912  97.4501 327.9333 0015146   5.4397 112.5502 15.19882668230521
TIANWANG 1C (TW-1C)
1 40926U 15051B   19322.54302569  .00012170  00000-0  15779-3 0  9997
2 40926  97.1167   8.6565 0007834 150.6923 343.9953 15.58967783233948
TIANWANG 1B (TW-1B)
1 40927U 15051C   19322.53202164  .00010806  00000-0  15011-3 0  9990
2 40927  97.1194   7.6969 0007632 162.0022 304.1652 15.57150053233778
TIANWANG 1A (TW-1A)
1 40928U 15051D   19322.47308153  .00002234  00000-0  55127-4 0  9998
2 40928  97.1314 350.3488 0009247 233.7311 238.8022 15.41533125232702
LAPAN A2
1 40931U 15052B   19308.14990593  .00000506  00000-0 -18695-4 0  9996
2 40931   5.9899 149.2330 0013523 313.9745  46.0045 14.76617760221769
LQSAT
1 40958U 15057A   19322.32883091  .00000032  00000-0  12488-4 0  9997
2 40958  97.8826  27.2689 0019519 110.2968 250.0340 14.73096724221275
CHUBUSAT 2
1 41338U 16012B   19321.86131009 +.00000300 +00000-0 +16548-4 0  9994
2 41338 031.0032 257.6786 0013828 171.1542 188.9339 15.00209482205788
CHUBUSAT 3
1 41339U 16012C   19322.21234850  .00000282  00000-0  15122-4 0  9999
2 41339  31.0118 253.3439 0013718 182.4269 177.6302 15.00380760205831
OUFTI-1
1 41458U 16025C   19321.81057324 +.00002652 +00000-0 +13722-3 0  9995
2 41458 098.1008 056.3999 0165047 205.0993 154.2146 15.06198078195465
E-STAR-2
1 41459U 16025D   19322.46237179  .00002064  00000-0  10832-3 0  9992
2 41459  98.1014  56.6566 0166963 204.3812 154.9440 15.05816129195531
AAUSAT 4
1 41460U 16025E   19322.50690636  .00002012  00000-0  10347-3 0  9994
2 41460  98.0976  58.3481 0155978 195.4475 164.1973 15.07843401195699
NUSAT 1
1 41557U 16033B   19322.49751900  .00001182  00000-0  46531-4 0  9992
2 41557  97.4136  49.0966 0015237 115.4117 244.8701 15.27536604193419
BEESAT 4
1 41619U 16040W   19321.85082675 +.00001316 +00000-0 +58065-4 0  9998
2 41619 097.3500 021.1153 0010644 200.4785 159.6027 15.23466743177029
PRATHAM
1 41783U 16059A   19321.77422373 +.00000049 +00000-0 +18725-4 0  9995
2 41783 098.0490 017.8474 0032241 265.4426 094.3093 14.63020810167789
ALSAT 1N
1 41789U 16059G   19322.52129331  .00000088  00000-0  25790-4 0  9996
2 41789  98.0516  20.9103 0027049 251.4452 108.3815 14.64276675168010
NAYIF 1
1 42017U 17008BX  19321.72675759 +.00001344 +00000-0 +55231-4 0  9996
2 42017 097.3872 027.1459 0006213 009.1611 350.9740 15.25898981153104
MAX VALIER SAT
1 42778U 17036P   19321.78284029 +.00000826 +00000-0 +38817-4 0  9998
2 42778 097.3362 015.9588 0013588 055.4987 304.7531 15.22251860133371
